TimePDT,TemperatureF,Dew PointF,Humidity,Sea Level PressureIn,VisibilityMPH,Wind Direction,Wind SpeedMPH,Gust SpeedMPH,PrecipitationIn,Events,Conditions,WindDirDegrees,DateUTC
12:15 AM,48.2,39.2,71,30.24,10.0,Calm,Calm,-,N/A,,Clear,0,2013-06-26 07:15:00
12:35 AM,48.2,41.0,76,30.23,10.0,Calm,Calm,-,N/A,,Clear,0,2013-06-26 07:35:00
12:55 AM,46.4,39.2,76,30.23,10.0,SW,3.5,-,N/A,,Clear,230,2013-06-26 07:55:00
1:15 AM,44.6,39.2,81,30.23,10.0,Calm,Calm,-,N/A,,Clear,0,2013-06-26 08:15:00
1:35 AM,42.8,37.4,81,30.23,10.0,Calm,Calm,-,N/A,,Clear,0,2013-06-26 08:35:00
1:55 AM,41.0,37.4,87,30.23,10.0,Calm,Calm,-,N/A,,Clear,0,2013-06-26 08:55:00
2:15 AM,41.0,35.6,81,30.23,10.0,Calm,Calm,-,N/A,,Clear,0,2013-06-26 09:15:00
2:35 AM,42.8,37.4,81,30.23,10.0,Calm,Calm,-,N/A,,Clear,0,2013-06-26 09:35:00
2:55 AM,37.4,33.8,87,30.23,10.0,Calm,Calm,-,N/A,,Clear,0,2013-06-26 09:55:00
3:15 AM,37.4,33.8,87,30.23,10.0,Calm,Calm,-,N/A,,Clear,0,2013-06-26 10:15:00
3:35 AM,39.2,35.6,87,30.23,10.0,Calm,Calm,-,N/A,,Clear,0,2013-06-26 10:35:00
3:55 AM,39.2,35.6,87,30.23,10.0,Calm,Calm,-,N/A,,Clear,0,2013-06-26 10:55:00
4:15 AM,41.0,35.6,81,30.24,10.0,Calm,Calm,-,N/A,,Clear,0,2013-06-26 11:15:00
4:35 AM,39.2,35.6,87,30.24,10.0,Calm,Calm,-,N/A,,Clear,0,2013-06-26 11:35:00
4:55 AM,37.4,33.8,87,30.24,10.0,Calm,Calm,-,N/A,,Clear,0,2013-06-26 11:55:00
5:15 AM,35.6,32.0,87,30.25,10.0,NNW,5.8,-,N/A,,Clear,330,2013-06-26 12:15:00
5:35 AM,35.6,32.0,87,30.26,10.0,North,-9999.0,-,N/A,,Clear,0,2013-06-26 12:35:00
5:55 AM,37.4,33.8,87,30.26,10.0,Calm,Calm,-,N/A,,Clear,0,2013-06-26 12:55:00
6:15 AM,39.2,35.6,87,30.27,10.0,Calm,Calm,-,N/A,,Clear,0,2013-06-26 13:15:00
6:35 AM,41.0,35.6,81,30.27,10.0,Calm,Calm,-,N/A,,Clear,0,2013-06-26 13:35:00
6:55 AM,44.6,35.6,71,30.27,10.0,NW,3.5,-,N/A,,Clear,320,2013-06-26 13:55:00
7:15 AM,50.0,39.2,66,30.27,10.0,Calm,Calm,-,N/A,,Clear,0,2013-06-26 14:15:00
7:55 AM,59.0,42.8,55,30.28,10.0,SSE,3.5,-,N/A,,Clear,150,2013-06-26 14:55:00
8:15 AM,62.6,42.8,48,30.29,10.0,SSE,4.6,-,N/A,,Clear,150,2013-06-26 15:15:00
8:35 AM,64.4,42.8,45,30.29,10.0,ESE,3.5,-,N/A,,Clear,110,2013-06-26 15:35:00
8:55 AM,66.2,42.8,43,30.30,10.0,SSE,3.5,-,N/A,,Clear,150,2013-06-26 15:55:00
9:15 AM,68.0,39.2,35,30.30,10.0,ENE,3.5,-,N/A,,Clear,60,2013-06-26 16:15:00
9:35 AM,69.8,37.4,31,30.30,10.0,Calm,Calm,-,N/A,,Clear,0,2013-06-26 16:35:00
9:55 AM,71.6,37.4,29,30.29,10.0,North,4.6,-,N/A,,Clear,360,2013-06-26 16:55:00
10:15 AM,75.2,37.4,25,30.29,10.0,East,6.9,-,N/A,,Clear,80,2013-06-26 17:15:00
10:35 AM,75.2,37.4,25,30.29,10.0,ESE,5.8,-,N/A,,Clear,110,2013-06-26 17:35:00
10:55 AM,77.0,35.6,22,30.29,10.0,ESE,4.6,-,N/A,,Clear,120,2013-06-26 17:55:00
11:15 AM,77.0,35.6,22,30.29,10.0,East,5.8,-,N/A,,Clear,100,2013-06-26 18:15:00
11:35 AM,78.8,33.8,20,30.29,10.0,SSE,3.5,-,N/A,,Clear,150,2013-06-26 18:35:00
11:55 AM,78.8,32.0,18,30.29,10.0,ESE,4.6,-,N/A,,Clear,120,2013-06-26 18:55:00
12:15 PM,80.6,30.2,16,30.28,10.0,SSE,10.4,-,N/A,,Clear,150,2013-06-26 19:15:00
12:35 PM,80.6,30.2,16,30.28,10.0,SSE,8.1,-,N/A,,Clear,150,2013-06-26 19:35:00
12:55 PM,84.2,30.2,14,30.28,10.0,NNE,6.9,-,N/A,,Clear,20,2013-06-26 19:55:00
1:15 PM,84.2,37.4,19,30.28,10.0,NW,10.4,16.1,N/A,,Clear,310,2013-06-26 20:15:00
1:35 PM,82.4,37.4,20,30.28,10.0,WNW,18.4,25.3,N/A,,Clear,300,2013-06-26 20:35:00
1:55 PM,84.2,39.2,20,30.27,10.0,WNW,18.4,28.8,N/A,,Clear,290,2013-06-26 20:55:00
2:15 PM,82.4,41.0,23,30.27,10.0,NW,17.3,25.3,N/A,,Clear,310,2013-06-26 21:15:00
2:35 PM,82.4,42.8,25,30.27,10.0,WNW,20.7,27.6,N/A,,Clear,300,2013-06-26 21:35:00
2:55 PM,82.4,42.8,25,30.27,10.0,WNW,24.2,33.4,N/A,,Clear,300,2013-06-26 21:55:00
3:15 PM,84.2,41.0,22,30.26,10.0,West,11.5,36.8,N/A,,Clear,260,2013-06-26 22:15:00
3:35 PM,84.2,42.8,23,30.26,10.0,West,21.9,31.1,N/A,,Clear,280,2013-06-26 22:35:00
3:55 PM,82.4,41.0,23,30.26,10.0,SW,11.5,27.6,N/A,,Clear,230,2013-06-26 22:55:00
4:15 PM,84.2,41.0,22,30.26,10.0,WSW,15.0,23.0,N/A,,Clear,250,2013-06-26 23:15:00
4:35 PM,84.2,39.2,20,30.26,10.0,West,4.6,17.3,N/A,,Clear,270,2013-06-26 23:35:00
4:55 PM,82.4,42.8,25,30.26,10.0,WSW,8.1,28.8,N/A,,Clear,240,2013-06-26 23:55:00
5:15 PM,82.4,42.8,25,30.27,10.0,West,10.4,20.7,N/A,,Clear,270,2013-06-27 00:15:00
5:35 PM,82.4,42.8,25,30.26,10.0,SW,12.7,24.2,N/A,,Clear,230,2013-06-27 00:35:00
5:55 PM,82.4,42.8,25,30.26,10.0,WSW,8.1,-,N/A,,Clear,240,2013-06-27 00:55:00
6:15 PM,78.8,44.6,30,30.27,10.0,WNW,16.1,35.7,N/A,,Clear,300,2013-06-27 01:15:00
6:35 PM,77.0,44.6,32,30.28,10.0,NW,15.0,32.2,N/A,,Scattered Clouds,320,2013-06-27 01:35:00
6:55 PM,77.0,44.6,32,30.28,10.0,NNW,15.0,20.7,N/A,,Scattered Clouds,330,2013-06-27 01:55:00
7:15 PM,75.2,44.6,34,30.28,10.0,NNW,8.1,20.7,N/A,,Scattered Clouds,330,2013-06-27 02:15:00
7:35 PM,75.2,44.6,34,30.29,10.0,WNW,9.2,20.7,N/A,,Scattered Clouds,300,2013-06-27 02:35:00
7:55 PM,73.4,44.6,36,30.29,10.0,NW,4.6,-,N/A,,Clear,310,2013-06-27 02:55:00
8:15 PM,71.6,44.6,38,30.30,10.0,NNW,4.6,-,N/A,,Clear,330,2013-06-27 03:15:00
8:35 PM,68.0,46.4,46,30.30,10.0,Calm,Calm,-,N/A,,Clear,0,2013-06-27 03:35:00
8:55 PM,66.2,46.4,49,30.31,10.0,NW,8.1,-,N/A,,Clear,320,2013-06-27 03:55:00
9:15 PM,66.2,44.6,46,30.32,10.0,North,4.6,-,N/A,,Clear,10,2013-06-27 04:15:00
9:35 PM,66.2,46.4,49,30.32,10.0,Calm,Calm,-,N/A,,Clear,0,2013-06-27 04:35:00
9:55 PM,66.2,46.4,49,30.33,10.0,Calm,Calm,-,N/A,,Clear,0,2013-06-27 04:55:00
10:15 PM,64.4,46.4,52,30.34,10.0,Calm,Calm,-,N/A,,Clear,0,2013-06-27 05:15:00
10:35 PM,62.6,46.4,55,30.35,10.0,SE,3.5,-,N/A,,Clear,140,2013-06-27 05:35:00
11:15 PM,62.6,46.4,55,30.36,10.0,Calm,Calm,-,N/A,,Clear,0,2013-06-27 06:15:00
11:35 PM,60.8,46.4,59,30.36,10.0,Calm,Calm,-,N/A,,Clear,0,2013-06-27 06:35:00
11:55 PM,60.8,46.4,59,30.36,10.0,Calm,Calm,-,N/A,,Clear,0,2013-06-27 06:55:00